Regional Weather Roundup
Issued by NWS Cleveland, OH

Home | Current Version | Previous Version | Graphics & Text | Print | Product List | Glossary On
Versions: 1 2 3 4 5 6 7 8 9 10 11 12 13 14 15 16 17 18 19 20 21 22 23 24 25 26 27 28 29 30 31 32 33 34 35 36 37 38 39 40 41 42 43 44 45 46 47 48 49 50
000
ASUS41 KCLE 300800
RWRCLE
OHIO REGIONAL WEATHER ROUNDUP
NATIONAL WEATHER SERVICE WILMINGTON, OH
300 AM EST FRI JAN 30 2015

NOTE: "FAIR" INDICATES FEW OR NO CLOUDS BELOW 12,000 FEET WITH NO
SIGNIFICANT WEATHER AND/OR OBSTRUCTIONS TO VISIBILITY.

OHZ001>008-015>018-024>027-034-035-043-044-300900-
   NORTHWEST OHIO

CITY           SKY/WX    TMP DP  RH WIND       PRES   REMARKS
DEFIANCE       MOCLDY    27  16  63 NW18G26   30.22R WCI  14
FINDLAY        LGT SNOW  28  23  81 N14G24    30.15R WCI  17
TOLEDO EXPRESS PTCLDY    24  14  65 NW14G23   30.18R WCI  12
TOLEDO EXEC    CLEAR     25  14  63 NW18G32   30.19R WCI  11
LIMA           CLOUDY    30  23  75 NW17G28   30.16R WCI  18
$$

OHZ009>014-019>023-028>033-038-089-300900-
   NORTHEAST OHIO

CITY           SKY/WX    TMP DP  RH WIND       PRES   REMARKS
CLE-HOPKINS    FLURRIES  28  21  75 NW16      30.11R WCI  16
CLE-LAKEFRONT  LGT SNOW  28  23  81 NW24G31   30.08R WCI  14
CUY CO. ARPT   NOT AVBL
LORAIN-ELYRIA  FLURRIES  27  18  69 N21G31    30.10R WCI  13
ASHTABULA      LGT SNOW  26  23  88 NW17G30   30.03R FOG     WCI  13
AKRON-CANTON   LGT SNOW  28  23  81 NW15G23   30.04R WCI  16
WOOSTER        NOT AVBL
MANSFIELD      LGT SNOW  26  21  81 NW14      30.08R WCI  14
YOUNGSTOWN     FLURRIES  28  24  85 NW15G23   30.00R WCI  16
$$

OHZ042-051>053-060>062-070>072-077>081-300900-
  SOUTHWEST OHIO

CITY           SKY/WX    TMP DP  RH WIND       PRES   REMARKS
CINC-COVINGTON CLOUDY    33  27  78 W10       30.23R WCI  25
CINC-LUNKEN    CLOUDY    35  26  69 W8        30.24R WCI  29
HAMILTON       CLOUDY    34  28  79 W10       30.23R WCI  26
DAYTON         NOT AVBL
WRIGHT-PAT AFB NOT AVBL
DAYTON GENERAL CLOUDY    33  27  78 W7        30.18R WCI  27
WILMINGTON     MIX PCPN  31  27  85 W12       30.17R WCI  22
$$

OHZ036-037-039>041-045>050-054>059-063>069-073>076-082>088-300900-
  CENTRAL AND SOUTHEAST OHIO

CITY           SKY/WX    TMP DP  RH WIND       PRES   REMARKS
COLUMBUS       LGT SNOW  31  26  82 W9        30.13R WCI  23
OSU AIRPORT    LGT SNOW  31  27  85 NW17G24   30.12R FOG     WCI  19
BOLTON FIELD   NOT AVBL
RICKENBACK AFB NOT AVBL
NEWARK         CLOUDY    32  26  78 NW12      30.10R WCI  23
MARION         SNOW      29  25  85 NW14      30.11R VSB 1/2 WCI  18
LANCASTER      CLOUDY    32  26  78 W10       30.12R WCI  24
ZANESVILLE     CLOUDY    31  27  85 W12       30.08R WCI  22
NEW PHILLY     LGT SNOW  30  26  85 NW13G23   30.07R FOG     WCI  20
$$



USA.gov is the U.S. government's official web portal to all federal, state and local government web resources and services.